Weather in Bad Pyrmont

Germany     51°58′51″N   9°15′35″E
temp.,
°C
wind,
m/s
gust,
m/s
humid.,
%
clouds,
%
prec.,
mm/h
press.,
hPa
HPBL,
m
20 june, sun
sun2023:00+20ene2387100 0.0 101244
02:00+19e289082 0.0 1009169
05:00+17sw41695100 4.5 1008809
08:00+19ssw51391100 5.5 1008679
11:00+24wsw696094 0.0 10091417
14:00+25wsw584962 0.0 10101743
17:00+25w344610 0.0 10091637
20:00+22n2573100 0.0 1009224
21 june, mon
mon2123:00+17ne279094 0.0 1008172
02:00+16nne31197100 3.1 1007524
05:00+14nnw4999100 36.7 1006484
08:00+13nne1698100 40.6 1008430
11:00+14nne2496100 0.1 1010412
14:00+19e567935 0.0 1008519
17:00+22ssw2682100 2.1 1007557
20:00+18w489432 3.6 1008479
22 june, tue
tue2223:00+13wsw399546 0.0 1011438
02:00+12sw41093100 0.0 1011498
05:00+12w4797100 0.1 1012561
08:00+12nw2593100 0.1 1015636
11:00+14nw248099 0.1 1016737
14:00+15nnw347188 0.1 1016947
17:00+18n3360100 0.0 10161236
20:00+16nne247192 0.0 1017686
23 june, wed
wed2323:00+11n289168 0.0 1018183
02:00+9nnw2194100 0.0 101928
05:00+9wnw1192100 0.0 101914
08:00+11nw1281100 0.0 1020261
11:00+17nnw2256100 0.0 1020830
14:00+20nnw225311 0.0 10201347
17:00+19n336257 0.0 10201003
20:00+17n247736 0.0 1020411
24 june, thu
thu2423:00+15nne118999 0.0 102026
02:00+14nne119394 0.0 102036
05:00+13n129791 0.0 102076
08:00+15n128552 0.0 1020361
11:00+18n2270100 0.0 1020905
14:00+17nw3271100 0.1 1021709
17:00+17nw2368100 0.0 1020690
20:00+16wnw1377100 0.0 1020407